Location: Brookfield Center
(41.2406°N, 80.5579°W)
Time: 16:54:55
(UTC+00:00)

STARLINK-37 - Pass Details

Date: 18 January 2020
Orbit: 528 x 531 km, 53.0° (Epoch: 21 February)

Event Time Altitude Azimuth Distance (km) Brightness Sun altitude
Exits shadow 11:27:37 - 220° (SW) 2,584 6.8 -14.3°
Reaches altitude 10° 11:29:40 10° 217° (SW) 1,768 6.0 -13.9°
Maximum altitude 11:33:37 60° 138° (SE) 610 4.1 -13.2°
Drops below altitude 10° 11:37:36 10° 58° (ENE) 1,781 6.8 -12.5°
Sets 11:39:50 0° 55° (NE) 2,675 7.7 -12.1°
